Evelyn Maersk — OXHV2 — position and weather

sailwx.info

Track history (hours):
 
Tides and Currents Weather Stations Pressure Air Temp Water Temp Dewpoint Dewpoint Depression Visibility Wind Speed Wind Dir Waves Ship Positions

Evelyn Maersk

Last reported at 2014-Oct-24 16:14 UTC. Time now 2014-Oct-25 05:37 UTC.
Position N 24°27' E 119°14'.

Length 398 m; draft 12.2 m.

Type: Cargo ship. MMSI: 220496000.

Date/timePositionNaut miles runAvg speedWind from/ knotsBaromVisibWave heightAir tempDewpointWater temp
2014-Oct-24 16:14N 24°27' E 119°14'4912.9
2014-Oct-24 12:27N 23°57' E 118°31'1313.9
2014-Oct-24 11:33N 23°49' E 118°21'1413.9
2014-Oct-24 10:33N 23°41' E 118°08'1413.7
2014-Oct-24 09:33N 23°33' E 117°56'1312.9
2014-Oct-24 08:33N 23°26' E 117°45'1711.6
2014-Oct-24 07:08N 23°14' E 117°32'  
2014-Oct-19 10:21N 01°15' E 104°04'1316.0
2014-Oct-19 09:31N 01°11' E 103°51'19 0.6
2014-Oct-18 00:31N 01°17' E 103°33'  
Track history (hours):
 
Tides and Currents Weather Stations Pressure Air Temp Water Temp Dewpoint Dewpoint Depression Visibility Wind Speed Wind Dir Waves Ship Positions

Evelyn Maersk

Last reported at 2014-Oct-24 16:14 UTC. Time now 2014-Oct-25 05:37 UTC.
Position N 24°27' E 119°14'.

Length 398 m; draft 12.2 m.

Type: Cargo ship. MMSI: 220496000.

Date/timePositionNaut miles runAvg speedWind from/ knotsBaromVisibWave heightAir tempDewpointWater temp
2014-Oct-24 16:14N 24°27' E 119°14'4912.9
2014-Oct-24 12:27N 23°57' E 118°31'1313.9
2014-Oct-24 11:33N 23°49' E 118°21'1413.9
2014-Oct-24 10:33N 23°41' E 118°08'1413.7
2014-Oct-24 09:33N 23°33' E 117°56'1312.9
2014-Oct-24 08:33N 23°26' E 117°45'1711.6
2014-Oct-24 07:08N 23°14' E 117°32'  
2014-Oct-19 10:21N 01°15' E 104°04'1316.0
2014-Oct-19 09:31N 01°11' E 103°51'19 0.6
2014-Oct-18 00:31N 01°17' E 103°33'  

Dump ship's entire track history